Location: New Paltz
(41.7500°N, 74.0833°W)
Time: 05:00:45
(UTC-05:00)

Daily predictions for brighter satellites

Satellite Brightness Start Highest point End
(mag) Time Altitude Azimuth Time Altitude Azimuth Time Altitude Azimuth
CZ-3 R/B 4.3 01:40:17 10° WSW 02:33:08 53° S 02:44:40 10° ESE
Cosmos 1697 Rocket 4.3 03:16:41 30° ENE 03:16:41 30° ENE 03:20:02 10° NE
Okean O Rocket 3.7 03:36:15 10° NE 03:38:55 26° ENE 03:38:55 26° ENE
USA 215 4.5 03:38:22 10° SSE 03:41:19 28° SSE 03:41:19 28° SSE
Cosmos 1821 Rocket 4.3 03:48:02 52° SE 03:49:10 60° E 03:55:19 10° NNE
Lacrosse 5 rocket 3.9 04:02:31 14° SE 04:02:31 14° SE 04:03:06 10° SE
ADEOS II 4.0 03:55:07 10° N 03:56:37 19° N 03:56:37 19° N
Cosmos 2278 4.5 04:12:34 39° NNW 04:12:34 39° NNW 04:16:32 10° NNE
Meteor 2-10 Rocket 3.5 04:12:26 73° E 04:12:26 73° E 04:17:18 10° NNE
MOS 1-B 4.4 04:11:45 10° N 04:16:51 61° NW 04:16:51 61° NW
Cosmos 1000 Rocket 4.3 04:11:53 10° N 04:18:08 74° W 04:24:15 10° S
Cosmos 2322 Rocket 4.4 04:14:40 10° SSE 04:19:03 24° E 04:23:29 10° NE
SJ 16-02 1.6 04:23:33 65° ESE 04:23:42 66° ESE 04:28:06 10° NNE
Cosmos 2239 Rocket 4.3 04:22:44 55° SSW 04:24:05 75° W 04:30:16 10° N
Cosmos 1980 Rocket 2.1 04:27:27 50° SSW 04:29:00 89° ESE 04:34:42 10° NNE
PAYLOAD B 4.1 04:25:18 10° NNE 04:30:50 84° WNW 04:33:01 38° SSW
Cosmos 1605 Rocket 4.2 04:28:41 10° S 04:34:45 68° E 04:40:48 10° NNE
Centaur D-1A AC-31 3.4 04:32:42 22° SSW 04:34:49 26° SSE 04:46:40 10° ESE
COSMO-SKYMED 1 4.1 04:33:49 10° SE 04:37:48 37° ENE 04:41:47 10° N
ATLAS 5 CENTAUR R/B 2.8 04:35:40 19° S 04:38:26 41° ESE 04:42:59 10° NE
Cosmos 405 3.7 04:45:09 10° N 04:48:40 55° ENE 04:52:10 10° SSE
SJ-6F 4.2 04:44:49 10° N 04:48:54 73° WNW 04:49:34 58° SW
Cosmos 158 Rocket 3.9 04:49:27 29° NW 04:51:50 56° WSW 04:56:53 10° S
Cosmos 1933 3.2 04:53:51 34° SSW 04:55:32 73° W 04:59:36 10° N
Cosmos 1441 Rocket 3.9 04:51:45 10° S 04:55:38 56° E 04:59:33 10° NNE
Cosmos 1697 Rocket 3.4 04:58:27 32° WNW 04:58:53 32° WNW 05:03:54 10° N
Cosmos 1707 Rocket 3.8 04:59:15 44° W 04:59:35 45° WNW 05:03:54 10° N
Meteor 1-31 Rocket 3.4 04:57:06 10° N 05:00:03 38° NW 05:00:03 38° NW
Hubble Space Telescope 3.1 05:03:15 12° SSW 05:04:15 13° S 05:06:09 10° SSE
BREEZE-M DEB (TANK) 3.3 05:02:53 28° NNW 05:04:21 49° NNE 05:12:02 10° ESE
SL-16 R/B 2.8 04:59:32 10° S 05:05:05 59° ESE 05:10:40 10° NNE
IDEFIX/ARIANE 42P 2.8 05:00:26 10° NNE 05:05:40 72° ESE 05:10:51 10° S
Cosmos 1048 Rocket 3.9 05:02:33 10° NNW 05:07:38 62° WSW 05:12:39 10° S
Cosmos 1934 Rocket 4.3 05:03:51 10° SSW 05:09:52 45° WNW 05:15:58 10° N
COSMOS 2455 2.8 05:04:10 10° NW 05:10:11 70° WSW 05:16:10 10° SSE
Cosmos 372 Rocket 4.2 05:12:17 21° SW 05:15:23 47° WNW 05:20:21 10° N
Okean O Rocket 2.6 05:12:45 10° NNW 05:16:23 26° WNW 05:16:23 26° WNW
Meteor 1-26 Rocket 4.3 05:13:52 10° S 05:19:47 87° W 05:25:38 10° N
USA 116 4.4 05:17:59 10° S 05:22:24 47° W 05:27:18 10° NNW
Cosmos 2123 Rocket 4.4 05:17:09 10° NNW 05:22:52 40° W 05:28:37 10° SSW
Feng Yun 1-1 Rocket 4.2 05:17:49 10° NNE 05:23:25 88° WNW 05:29:09 10° SSW
Cosmos 1125 Rocket 3.9 05:21:16 17° SW 05:24:55 40° WNW 05:29:49 10° N
SKYMED 2 3.5 05:21:26 10° S 05:25:43 66° WSW 05:30:03 10° NNW
Aureole 3 2.6 05:26:34 10° N 05:29:33 88° ENE 05:32:42 10° S
CZ-4B R/B 3.9 05:25:09 10° N 05:29:53 31° WNW 05:34:42 10° SW
Cosmos 1606 3.2 05:27:52 10° S 05:31:38 63° E 05:35:24 10° NNE
Cosmos 1900 4.4 05:28:23 10° SSW 05:33:30 86° WNW 05:38:37 10° NNE
Cosmos 1437 Rocket 3.9 05:30:12 10° N 05:34:09 47° ENE 05:37:59 10° SSE
Lacrosse 5 rocket 3.4 05:38:16 11° SW 05:38:16 11° SW 05:39:10 10° SW
Meteor 1-20 Rocket 4.3 05:32:08 10° N 05:38:00 89° ENE 05:43:46 10° S
Cosmos 2242 Rocket 4.0 05:36:36 10° SSW 05:40:56 42° WNW 05:45:18 10° N
Cosmos 374 Rocket 4.3 05:36:38 10° NW 05:40:57 71° WSW 05:44:45 10° SSE
COSMOS 2441 4.4 05:37:37 10° NNE 05:42:33 89° W 05:47:28 10° SSW
MTI 3.8 05:39:28 10° S 05:42:34 51° W 05:45:42 10° NNW
Cosmos 1703 Rocket 4.0 05:40:41 10° S 05:45:07 67° E 05:49:35 10° NNE
Cosmos 2263 Rocket 2.2 05:39:55 10° NNW 05:45:36 81° WSW 05:51:17 10° SSE
Meteor 1-14 Rocket 4.3 05:40:24 10° NNW 05:46:20 66° W 05:52:10 10° S
CZ-2C R/B 2.5 05:45:01 10° N 05:50:04 63° WNW 05:55:10 10° SSW
Cosmos 1633 2.5 05:47:05 10° NNW 05:50:40 60° W 05:54:16 10° S
Cosmos 405 Rocket 3.6 05:47:26 10° SW 05:50:55 29° WNW 05:54:21 10° NNW
Geosat 4.0 05:47:30 10° SSE 05:52:31 84° WSW 05:57:35 10° NNW
Cosmos 1484 Rocket 3.5 05:49:45 10° NNE 05:53:43 60° E 05:57:41 10° S
BREEZE-M DEB (TANK) 3.7 05:54:26 11° WSW 05:55:09 12° WSW 05:56:13 10° SSW
EXPRESS MD2 4.5 05:51:29 11° WNW 05:55:30 60° SW 06:04:21 10° SE
Cosmos 1461 3.6 05:52:22 10° SSW 05:56:36 62° ESE 06:01:06 10° NE
Radarsat Rocket 4.0 05:50:54 10° N 05:56:39 62° WNW 06:02:45 10° SSW
Cosmos 1908 Rocket 3.5 05:54:47 10° NNW 05:59:09 65° W 06:03:27 10° S
Meteor 2-6 Rocket 4.5 05:53:52 10° S 05:59:21 73° E 06:04:46 10° NNE
Cosmos 2322 Rocket 2.4 05:57:14 10° SW 06:02:44 50° WNW 06:08:17 10° NNE
SJ 16-02 3.2 06:00:39 10° W 06:02:46 13° WNW 06:04:53 10° NNW
Cosmos 1733 Rocket 4.1 05:59:29 10° NW 06:03:02 24° W 06:06:34 10° SW
Cosmos 494 Rocket 4.1 05:58:21 10° NNW 06:03:19 52° WSW 06:08:15 10° S
Iridium 2 3.8 06:02:08 10° S 06:05:57 85° E 06:09:49 10° N
Lacrosse 4 Rocket 4.0 06:02:49 10° SSE 06:06:08 25° ESE 06:09:28 10° NE
DELTA 2 R/B(2) 4.4 06:04:46 10° WSW 06:06:34 48° S 06:09:49 10° E
Cosmos 1844 Rocket 4.3 06:03:55 10° N 06:09:06 36° ENE 06:14:17 10° SE
Cosmos 2360 Rocket 2.4 06:05:14 10° SSW 06:10:54 83° ESE 06:16:36 10° NNE
USA 32 4.4 06:06:58 10° N 06:12:12 71° E 06:17:25 10° S
EO 1 Del DPAF 3.9 06:09:00 10° SSW 06:12:31 35° W 06:16:03 10° NNW
Tsikada Rocket 4.5 06:06:14 10° N 06:12:33 70° E 06:18:43 10° SSE
Cosmos 1980 Rocket 3.8 06:10:23 10° W 06:13:48 16° NW 06:17:14 10° N
COSMO-SKYMED 1 3.9 06:10:53 10° SW 06:14:03 20° W 06:17:15 10° NW
Okean-O 3.6 06:11:09 10° N 06:14:53 27° WNW 06:18:37 10° SW
Cosmos 2221 Rocket 3.7 06:11:19 10° S 06:15:47 85° E 06:20:14 10° N
CZ-3 R/B 3.5 06:06:05 10° W 06:17:04 23° SW 06:21:49 10° SSE
